Simultaneous Nadir Overpasses (SNOs) Predictions

Prediction of SNOs between AQUA and GOES-15 Satellite Orbit:

Table of predicted SNOs for the next 14.0 days since TLE Epoch: 2/5/2021
Index Date Time (AQUA) AQUA Lat,Lon GOES-15 Lat,Lon Distance(km) Time Diff (sec)
1 02/07/2021 10:00:51 0.20,-126.31 0.41,-127.26 108.24 80
2 02/07/2021 22:22:14 -1.31,-131.49 -0.43,-127.30 476.83 80
3 02/09/2021 09:48:40 -0.42,-123.35 0.41,-127.16 434.41 80
4 02/09/2021 22:10:03 -0.69,-128.54 -0.44,-127.21 150.71 80
5 02/11/2021 21:57:51 -0.13,-125.57 -0.44,-127.11 175.43 80
6 02/12/2021 10:19:07 1.22,-130.73 0.46,-127.03 420.17 80
7 02/14/2021 10:06:55 0.65,-127.76 0.46,-126.93 94.21 80
8 02/16/2021 09:54:44 0.02,-124.80 0.45,-126.84 231.61 80
9 02/16/2021 22:16:08 -1.12,-129.99 -0.47,-126.87 354.02 33
10 02/18/2021 22:03:56 -0.54,-127.02 -0.47,-126.77 28.67 80
